Tracking 17265 objects as of 4-September-2015
HD Live streaming from Space Station

Track Soyuz TMA-18M
and Space Station

SL-8 R/B

Track SL-8 R/B now!
10-day predictions
SL-8 R/B is classified as:


NORAD ID: 22308
Int'l Code: 1993-001B
Perigee: 969.9 km
Apogee: 1,003.1 km
Inclination: 82.9 °
Period: 104.7 minutes
Semi major axis: 7357 km
RCS: 5.4041 m2 (large)
Launch date: January 12, 1993
Source: Commonwealth of Independent States (former USSR) (CIS)

Note: This is a ROCKET BODY
Your satellite tracking list
Your tracking list is empty





NASA's NSSDC Master Catalog

Two Line Element Set (TLE):
1 22308U 93001B   15245.68178789 +.00000086 +00000-0 +73054-4 0  9996
2 22308 082.9340 293.4341 0022518 225.0697 250.1186 13.75643803136180

Source of the keplerian elements: AFSPC

N2YO: 291